DW3921 Weather Reports


time (UTC)temp
C
wind
direction
speed
KPH
gust
KPH
rain 1hr
cm
rain 24hr
cm
rain mn
cm
humidity
%
barometer
mb
20260509233008 20 43 3.2 14.5 0.00 0.00 0.00 56 998.4
20260509232009 20 39 6.4 14.5 0.00 0.00 0.00 58 998.6
20260509231005 20 27 3.2 14.5 0.00 0.00 0.00 59 998.7
20260509230006 19 35 4.8 14.5 0.00 0.00 0.00 59 999.0
20260509225005 19 31 4.8 14.5 0.00 0.00 0.00 58 999.3
20260509224006 18 29 4.8 14.5 0.00 0.00 0.00 61 999.1
20260509223006 18 39 6.4 14.5 0.00 0.00 0.00 61 999.2
20260509221005 17 34 4.8 14.5 0.00 0.00 0.00 63 999.8
20260509215007 16 24 4.8 14.5 0.00 0.00 0.00 66 1000.0
20260509214006 16 33 8.0 16.1 0.00 0.00 0.00 67 1000.3
20260509213007 15 26 4.8 14.5 0.00 0.00 0.00 72 1000.6
20260509212006 15 30 3.2 14.5 0.00 0.00 0.00 73 1001.2
20260509211006 14 31 1.6 14.5 0.00 0.00 0.00 75 1001.7
20260509210006 14 36 3.2 11.3 0.00 0.00 0.00 75 1002.4
20260509205007 13 36 3.2 14.5 0.00 0.00 0.00 75 1003.2
20260509204005 13 34 4.8 11.3 0.00 0.00 0.00 75 1004.2
20260509203006 12 35 4.8 11.3 0.00 0.00 0.00 77 1004.0
20260509202005 12 22 4.8 14.5 0.00 0.00 0.00 77 1004.1
20260509201006 12 30 6.4 14.5 0.00 0.00 0.00 78 1004.3
20260509200006 11 36 3.2 14.5 0.00 0.00 0.00 79 1004.3
20260509194006 10 46 3.2 4.8 0.00 0.00 0.00 84 1004.1
20260509193006 8 0 0.0 3.2 0.00 0.00 0.00 87 1004.1
20260509192005 8 0 0.0 3.2 0.00 0.00 0.00 87 1004.0
20260509191005 8 0 0.0 3.2 0.00 0.00 0.00 87 1003.8
20260509190006 8 0 0.0 3.2 0.00 0.00 0.00 87 1003.8
20260509185005 9 0 0.0 3.2 0.00 0.00 0.00 85 1003.7
20260509184005 10 0 0.0 4.8 0.00 0.00 0.00 84 1003.6
20260509183006 9 0 0.0 3.2 0.00 0.00 0.00 84 1003.2
20260509182006 10 43 1.6 4.8 0.00 0.00 0.00 84 1003.3
20260509181006 9 0 0.0 4.8 0.00 0.00 0.00 85 1003.3
20260509180006 9 45 1.6 4.8 0.00 0.00 0.00 86 1003.1
20260509175006 10 43 1.6 4.8 0.00 0.00 0.00 85 1003.0
20260509174005 10 0 0.0 4.8 0.00 0.00 0.00 84 1002.6
20260509173006 9 1 1.6 4.8 0.00 0.00 0.00 89 1002.9
20260509172006 9 0 0.0 3.2 0.00 0.00 0.00 88 1002.4
20260509170006 10 0 0.0 3.2 0.00 0.00 0.00 86 1002.3
20260509165006 11 0 0.0 9.7 0.00 0.00 0.00 82 1002.3
20260509164006 12 33 1.6 16.1 0.00 0.03 0.00 80 1001.6
20260509163006 12 37 4.8 14.5 0.00 0.03 0.00 80 1001.7
20260509161006 12 0 0.0 4.8 0.00 0.05 0.00 81 1002.1
20260509160007 12 32 3.2 19.3 0.00 0.05 0.00 78 1001.7
20260509155005 12 30 4.8 11.3 0.00 0.05 0.00 78 1001.8
20260509154005 12 34 4.8 14.5 0.00 0.05 0.00 79 1001.7
20260509153007 11 29 1.6 9.7 0.00 0.05 0.00 85 1001.8
20260509152007 10 0 0.0 3.2 0.00 0.05 0.00 91 1001.8
20260509151006 10 0 0.0 3.2 0.00 0.05 0.00 91 1002.1
20260509150007 10 0 0.0 3.2 0.00 0.05 0.00 91 1002.0
20260509145006 10 0 0.0 3.2 0.00 0.05 0.00 91 1001.7
20260509143006 11 0 0.0 0.0 0.00 0.05 0.00 90 1001.9
20260509141007 11 0 0.0 0.0 0.00 0.05 0.00 88 1001.9
20260509135006 12 0 0.0 4.8 0.00 0.05 0.00 86 1001.6
20260509132005 11 43 4.8 9.7 0.00 0.05 0.00 87 1000.9
20260509131007 12 0 0.0 4.8 0.00 0.05 0.00 88 1001.5
20260509125005 12 0 0.0 0.0 0.00 0.05 0.00 88 1001.1
20260509123008 12 0 0.0 0.0 0.00 0.05 0.00 86 1000.9
20260509121006 13 0 0.0 4.8 0.00 0.05 0.00 82 1000.8
20260509120010 13 0 0.0 11.3 0.00 0.05 0.00 82 1000.9
20260509115005 13 45 3.2 4.8 0.00 0.05 0.05 82 1001.1
20260509114006 12 0 0.0 0.0 0.00 0.05 0.05 83 1001.1
20260509113006 13 0 0.0 0.0 0.00 0.05 0.05 81 1001.2
20260509112007 14 0 0.0 4.8 0.00 0.05 0.05 77 1001.3
20260509111005 14 0 0.0 3.2 0.00 0.05 0.05 78 1001.5
20260509110006 14 45 1.6 4.8 0.00 0.05 0.05 78 1001.9
20260509105005 13 0 0.0 3.2 0.00 0.05 0.05 80 1002.0
20260509104005 13 0 0.0 9.7 0.00 0.05 0.05 81 1002.1
20260509102006 12 0 0.0 0.0 0.00 0.05 0.05 85 1002.4
20260509101006 13 0 0.0 0.0 0.00 0.05 0.05 83 1002.6
20260509100006 13 0 0.0 3.2 0.00 0.05 0.05 83 1002.7
20260509093006 13 0 0.0 0.0 0.00 0.05 0.05 80 1002.9
20260509092007 15 0 0.0 0.0 0.00 0.05 0.05 76 1002.7
20260509091006 15 0 0.0 14.5 0.00 0.05 0.05 73 1002.8
20260509090006 16 38 6.4 14.5 0.00 0.05 0.05 71 1002.3
20260509085005 16 34 3.2 14.5 0.00 0.05 0.05 72 1002.4
20260509084006 15 35 4.8 14.5 0.00 0.05 0.05 73 1002.3
20260509083005 15 13 3.2 16.1 0.00 0.05 0.05 75 1002.1
20260509081005 15 26 6.4 14.5 0.00 0.05 0.05 76 1001.8
20260509080006 16 33 1.6 16.1 0.00 0.05 0.05 73 1001.9
20260509075005 15 39 3.2 9.7 0.00 0.05 0.05 72 1002.1
20260509074005 16 31 3.2 11.3 0.00 0.05 0.05 70 1001.8
20260509072006 16 34 8.0 16.1 0.00 0.05 0.05 72 1001.4
20260509071005 15 39 4.8 11.3 0.00 0.05 0.05 75 1001.4
20260509070006 15 47 3.2 4.8 0.00 0.05 0.05 77 1001.1
20260509065005 15 0 0.0 3.2 0.00 0.05 0.05 77 1001.2
20260509064006 15 0 0.0 0.0 0.00 0.05 0.05 76 1001.4
20260509063007 16 0 0.0 4.8 0.00 0.05 0.05 74 1000.8
20260509062005 16 24 1.6 9.7 0.00 0.05 0.05 73 1000.7
20260509061004 16 43 1.6 14.5 0.00 0.05 0.05 72 1000.2
20260509060007 21 22 8.0 16.1 0.00 0.05 0.05 58 991.1
20260509055005 21 22 8.0 16.1 0.00 0.05 0.05 58 991.1
20260509054007 21 22 8.0 16.1 0.00 0.05 0.05 58 991.1
20260509053006 21 22 8.0 16.1 0.00 0.05 0.05 58 991.1
20260509052006 21 22 8.0 16.1 0.00 0.05 0.05 58 991.1
20260509051008 21 22 8.0 16.1 0.00 0.05 0.05 58 991.1
20260509050006 21 22 8.0 16.1 0.00 0.05 0.05 58 991.1
20260509045005 21 22 8.0 16.1 0.00 0.05 0.05 58 991.1
20260509044006 21 22 8.0 16.1 0.00 0.05 0.05 58 991.1
20260509043006 21 22 8.0 16.1 0.00 0.05 0.05 58 991.1
20260509041007 21 22 8.0 16.1 0.00 0.05 0.05 58 991.1
20260509040006 21 22 8.0 16.1 0.00 0.05 0.05 58 991.1
20260509035006 21 22 8.0 16.1 0.00 0.05 0.05 58 991.1
20260509033007 21 22 8.0 16.1 0.00 0.05 0.05 58 991.1
20260509031006 21 22 8.0 16.1 0.00 0.05 0.05 58 991.1
20260509030006 21 22 8.0 16.1 0.00 0.05 0.05 58 991.1
20260509025006 21 22 8.0 16.1 0.00 0.05 0.05 58 991.1
20260509023008 21 22 8.0 16.1 0.00 0.05 0.05 58 991.1
20260509022006 22 25 3.2 19.3 0.00 0.05 0.05 55 990.9
20260509021006 22 41 4.8 22.5 0.00 0.05 0.05 55 991.0
20260509020007 22 331 6.4 27.4 0.00 0.05 0.05 54 991.1
20260509014006 22 29 16.1 25.7 0.00 0.05 0.05 54 991.3
20260509013007 22 15 6.4 16.1 0.00 0.05 0.05 55 991.3
20260509012006 22 27 6.4 22.5 0.00 0.05 0.05 54 991.1
20260509011006 22 32 6.4 19.3 0.00 0.05 0.05 55 991.5
20260509010009 22 30 9.7 27.4 0.00 0.05 0.05 55 991.5
20260509005008 22 34 9.7 27.4 0.00 0.05 0.05 57 991.2
20260509003007 22 33 8.0 16.1 0.00 0.05 0.05 56 992.0
20260509002005 22 33 9.7 27.4 0.00 0.05 0.05 56 992.8
20260509001006 22 40 6.4 27.4 0.00 0.05 0.05 58 993.0
20260509000006 21 32 6.4 22.5 0.00 0.05 0.05 57 993.3